Home > Weather > Ribeirão Prêto > Past weeks

Flag for Brazil Weather for the Past 2 Weeks in Ribeirão Prêto, São Paulo, Brazil

Now
75 °F

Clear.


Feels Like: 75 °F
Forecast: 73 / 94 °F
Wind: No wind

Location: Leite Lopes / Ribeir

Current Time: Feb 13, 2016 at 10:39:37 PM

Latest Report: Feb 13, 2016 at 10:00 PM


Visibility: 10 mi

Pressure: 29.89 "Hg (28.06 "Hg at 549m altitude)

Humidity: 89%

Dew point: 72 °F

Location of Ribeirão PrêtoLocation

Historic Weather in Ribeirão Prêto — Graph

°F

Ribeirão Prêto Temperature Yesterday

Maximum temperature yesterday: 90 °F (at 4:00 PM)
Minimum temperature yesterday: 70 °F (at 5:00 AM)
Average temperature yesterday: 79 °F

High & Low Weather Summary for the Past Weeks

 TemperatureHumidityPressure
High97 °F (Feb 2, 4:00 PM)100% (Feb 7, 9:00 PM)30.12 "Hg (Feb 7, 9:00 PM)
Low68 °F (Jan 31, 7:00 AM)27% (Feb 2, 4:00 PM)29.83 "Hg (Feb 12, 6:00 PM)
Average80 °F70%29.99 "Hg
* Reported Jan 29 9:00 PM — Feb 13 9:00 PM, Ribeirão Prêto, Weather by CustomWeather, © 2016

Note: Actual official high and low records may vary slightly from our data, if they occured in-between our weather recording intervals... More about our weather records

Advertising

Ribeirão Prêto Weather History for the Previous 24 Hours

 ConditionsComfort  
Time TempWeatherWind HumidityBarometerVisibility
9:00 PM
Sat, Feb 13
75 °FClear.7 mph89%29.86 "Hg10 mi
8:00 PM75 °FPassing clouds.5 mph89%29.83 "HgN/A
7:00 PM77 °FPassing clouds.2 mph83%29.83 "HgN/A
6:00 PM77 °FLight rain. Broken clouds.10 mph89%29.86 "Hg5 mi
5:00 PM82 °FScattered showers. Partly sunny.16 mph66%29.86 "HgN/A
4:00 PM90 °FPartly sunny.3 mph52%29.86 "HgN/A
3:00 PM77 °FRain. Partly sunny.14 mph83%29.89 "HgN/A
2:00 PM90 °FPartly sunny.3 mph52%29.89 "HgN/A
1:00 PM88 °FPartly sunny.3 mph59%29.92 "HgN/A
12:00 PM88 °FScattered clouds.5 mph62%29.92 "HgN/A
11:00 AM84 °FPassing clouds.6 mph70%29.95 "HgN/A
10:00 AM81 °FSunny.8 mph74%29.95 "Hg10 mi
9:00 AM75 °FSunny.5 mph83%29.92 "Hg10 mi
8:00 AM72 °FSunny.5 mph88%29.92 "Hg10 mi
7:00 AM70 °FSunny.5 mph94%29.89 "Hg10 mi
6:00 AM70 °FClear.2 mph94%29.86 "Hg10 mi
5:00 AM72 °FClear.5 mph88%29.86 "Hg10 mi
4:00 AM72 °FClear.2 mph88%29.86 "Hg10 mi
3:00 AM73 °FClear.8 mph83%29.86 "Hg10 mi
2:00 AM77 °FClear.8 mph74%29.89 "Hg10 mi
1:00 AM77 °FClear.8 mph79%29.89 "Hg10 mi
12:00 AM79 °FClear.No wind79%29.92 "Hg10 mi
11:00 PM
Fri, Feb 12
79 °FClear.No wind79%29.89 "Hg10 mi
10:00 PM82 °FClear.5 mph66%29.89 "Hg10 mi
Weather by CustomWeather, © 2016

See weather overviewHow to use our weather pages